• în România
  • Lista ţărilor
  • Pe 7 zile
  • Temperatura apei
  • Hartă satelitară
  • Meteo pe hartă
  • Widget-uri
  • user-avatar
    Intrare

    Meteo pe oră la San Fernando de Apure

    Astăzi, 23 Octombrie, Marţi

    Timp Temperatura Precipitaţii Vânt Presiune Umiditate
    00:00 +26°C° 0.1 mm 1 m/s 753 mmHg 97%
    01:00 +26°C° 0.1 mm 1 m/s 753 mmHg 97%
    02:00 +25°C° 0 mm 1 m/s 753 mmHg 97%
    03:00 +25°C° 0.4 mm 1 m/s 753 mmHg 97%
    04:00 +25°C° 0.4 mm 1 m/s 752 mmHg 98%
    05:00 +25°C° 0.4 mm 1 m/s 752 mmHg 98%
    06:00 +25°C° 0.2 mm 1 m/s 753 mmHg 97%
    07:00 +26°C° 0.2 mm 1 m/s 753 mmHg 96%
    08:00 +26°C° 0.2 mm 2 m/s 753 mmHg 96%
    09:00 +27°C° 0 mm 2 m/s 753 mmHg 90%
    10:00 +29°C° 0 mm 2 m/s 754 mmHg 85%
    11:00 +30°C° 0 mm 2 m/s 754 mmHg 79%
    12:00 +31°C° 0.1 mm 2 m/s 753 mmHg 74%
    13:00 +32°C° 0.1 mm 2 m/s 752 mmHg 70%
    14:00 +34°C° 0.1 mm 2 m/s 751 mmHg 65%
    15:00 +33°C° 0.8 mm 1 m/s 751 mmHg 69%
    16:00 +33°C° 0.8 mm 1 m/s 750 mmHg 72%
    17:00 +32°C° 0.8 mm 1 m/s 750 mmHg 75%
    18:00 +31°C° 0.8 mm 1 m/s 750 mmHg 79%
    19:00 +29°C° 0.8 mm 1 m/s 751 mmHg 83%
    20:00 +28°C° 0.8 mm 1 m/s 752 mmHg 86%
    21:00 +28°C° 1.7 mm 1 m/s 752 mmHg 88%
    22:00 +27°C° 1.7 mm 1 m/s 753 mmHg 90%
    23:00 +27°C° 1.7 mm 1 m/s 753 mmHg 92%

    Mâine, 24 Octombrie, Miercuri

    Timp Temperatura Precipitaţii Vânt Presiune Umiditate
    00:00 +27°C° 3.3 mm 1 m/s 753 mmHg 93%
    01:00 +26°C° 3.3 mm 1 m/s 753 mmHg 94%
    02:00 +26°C° 3.3 mm 1 m/s 753 mmHg 95%
    03:00 +26°C° 0.6 mm 1 m/s 752 mmHg 95%
    04:00 +26°C° 0.6 mm 1 m/s 752 mmHg 95%
    05:00 +26°C° 0.6 mm 1 m/s 752 mmHg 96%
    06:00 +26°C° 0 mm 1 m/s 753 mmHg 95%
    07:00 +26°C° 0 mm 1 m/s 753 mmHg 95%
    08:00 +27°C° 0 mm 1 m/s 754 mmHg 94%
    09:00 +28°C° 0.1 mm 1 m/s 754 mmHg 89%
    10:00 +29°C° 0.1 mm 1 m/s 754 mmHg 85%
    11:00 +30°C° 0.1 mm 2 m/s 754 mmHg 80%
    12:00 +31°C° 0.1 mm 2 m/s 753 mmHg 76%
    13:00 +31°C° 0.1 mm 2 m/s 753 mmHg 73%
    14:00 +32°C° 0.1 mm 2 m/s 752 mmHg 69%
    15:00 +32°C° 0.3 mm 2 m/s 751 mmHg 73%
    16:00 +31°C° 0.3 mm 2 m/s 751 mmHg 77%
    17:00 +31°C° 0.3 mm 2 m/s 751 mmHg 81%
    18:00 +29°C° 0.1 mm 1 m/s 751 mmHg 83%
    19:00 +28°C° 0.1 mm 1 m/s 752 mmHg 85%
    20:00 +27°C° 0.1 mm 1 m/s 752 mmHg 87%
    21:00 +27°C° 0 mm 1 m/s 753 mmHg 87%
    22:00 +27°C° 0 mm 1 m/s 753 mmHg 88%
    23:00 +26°C° 0 mm 1 m/s 753 mmHg 88%

    Poimâine, 25 Octombrie, Joi

    Timp Temperatura Precipitaţii Vânt Presiune Umiditate
    00:00 +26°C° 0.1 mm 1 m/s 753 mmHg 89%
    01:00 +26°C° 0.1 mm 1 m/s 753 mmHg 89%
    02:00 +25°C° 0.1 mm 1 m/s 752 mmHg 90%
    03:00 +25°C° 0.1 mm 1 m/s 752 mmHg 90%
    04:00 +25°C° 0.1 mm 1 m/s 752 mmHg 91%
    05:00 +25°C° 0.1 mm 1 m/s 752 mmHg 91%
    06:00 +26°C° 0 mm 1 m/s 752 mmHg 90%
    07:00 +26°C° 0 mm 2 m/s 753 mmHg 89%
    08:00 +27°C° 0 mm 2 m/s 753 mmHg 88%
    09:00 +28°C° 0 mm 2 m/s 754 mmHg 84%
    10:00 +29°C° 0 mm 2 m/s 754 mmHg 80%
    11:00 +30°C° 0 mm 3 m/s 754 mmHg 76%
    12:00 +31°C° 0.5 mm 3 m/s 753 mmHg 75%
    13:00 +32°C° 0.5 mm 2 m/s 752 mmHg 73%
    14:00 +32°C° 0.5 mm 2 m/s 751 mmHg 71%
    15:00 +32°C° 0.1 mm 2 m/s 750 mmHg 73%
    16:00 +32°C° 0.1 mm 2 m/s 750 mmHg 76%
    17:00 +32°C° 0.1 mm 1 m/s 750 mmHg 79%
    18:00 +30°C° 0.5 mm 1 m/s 750 mmHg 82%
    19:00 +29°C° 0.5 mm 1 m/s 751 mmHg 86%
    20:00 +28°C° 0.5 mm 1 m/s 751 mmHg 90%
    21:00 +27°C° 1.2 mm 1 m/s 752 mmHg 91%
    22:00 +27°C° 1.2 mm 1 m/s 752 mmHg 93%
    23:00 +27°C° 1.2 mm 1 m/s 752 mmHg 94%

    26 Octombrie, Vineri

    Timp Temperatura Precipitaţii Vânt Presiune Umiditate
    00:00 +27°C° 0.9 mm 1 m/s 752 mmHg 94%
    01:00 +26°C° 0.9 mm 1 m/s 752 mmHg 95%
    02:00 +26°C° 0.9 mm 1 m/s 751 mmHg 95%
    03:00 +26°C° 0.8 mm 1 m/s 751 mmHg 95%
    04:00 +26°C° 0.8 mm 1 m/s 751 mmHg 96%
    05:00 +26°C° 0.8 mm 1 m/s 751 mmHg 96%
    06:00 +26°C° 0.2 mm 2 m/s 752 mmHg 95%
    07:00 +27°C° 0.2 mm 2 m/s 753 mmHg 94%
    08:00 +27°C° 0.2 mm 2 m/s 753 mmHg 93%
    09:00 +28°C° 0 mm 2 m/s 753 mmHg 88%
    10:00 +30°C° 0 mm 3 m/s 754 mmHg 83%
    11:00 +31°C° 0 mm 3 m/s 754 mmHg 77%
    12:00 +33°C° 0.3 mm 3 m/s 753 mmHg 75%
    13:00 +33°C° 0.3 mm 3 m/s 752 mmHg 72%
    14:00 +34°C° 0.3 mm 2 m/s 751 mmHg 69%
    15:00 +34°C° 0.4 mm 2 m/s 750 mmHg 72%
    16:00 +32°C° 0.4 mm 2 m/s 750 mmHg 76%
    17:00 +32°C° 0.4 mm 2 m/s 750 mmHg 79%
    18:00 +31°C° 0.1 mm 1 m/s 751 mmHg 82%
    19:00 +30°C° 0.1 mm 1 m/s 751 mmHg 85%
    20:00 +28°C° 0.1 mm 1 m/s 752 mmHg 88%
    21:00 +28°C° 0.2 mm 1 m/s 752 mmHg 89%
    22:00 +28°C° 0.2 mm 1 m/s 752 mmHg 90%
    23:00 +27°C° 0.2 mm 1 m/s 752 mmHg 91%

    27 Octombrie, Sâmbătă

    Timp Temperatura Precipitaţii Vânt Presiune Umiditate
    00:00 +27°C° 0.7 mm 1 m/s 752 mmHg 91%
    01:00 +27°C° 0.7 mm 1 m/s 752 mmHg 92%
    02:00 +26°C° 0.7 mm 1 m/s 751 mmHg 92%
    03:00 +26°C° 0.2 mm 2 m/s 752 mmHg 92%
    04:00 +26°C° 0.2 mm 2 m/s 752 mmHg 92%
    05:00 +26°C° 0.2 mm 2 m/s 752 mmHg 92%
    06:00 +26°C° 0 mm 2 m/s 753 mmHg 90%
    07:00 +27°C° 0 mm 2 m/s 753 mmHg 89%
    08:00 +27°C° 0 mm 3 m/s 754 mmHg 88%
    09:00 +29°C° 0 mm 3 m/s 754 mmHg 83%
    10:00 +30°C° 0 mm 3 m/s 754 mmHg 77%
    11:00 +33°C° 0 mm 3 m/s 754 mmHg 72%
    12:00 +33°C° 0 mm 3 m/s 753 mmHg 70%
    13:00 +34°C° 0 mm 3 m/s 752 mmHg 67%
    14:00 +35°C° 0 mm 3 m/s 752 mmHg 64%
    15:00 +34°C° 0.1 mm 3 m/s 751 mmHg 68%
    16:00 +34°C° 0.1 mm 2 m/s 751 mmHg 72%
    17:00 +32°C° 0.1 mm 2 m/s 751 mmHg 76%
    18:00 +31°C° 0.1 mm 2 m/s 752 mmHg 79%
    19:00 +30°C° 0.1 mm 2 m/s 752 mmHg 82%
    20:00 +28°C° 0.1 mm 1 m/s 753 mmHg 84%
    21:00 +28°C° 0 mm 1 m/s 753 mmHg 86%
    22:00 +27°C° 0 mm 1 m/s 753 mmHg 87%
    23:00 +27°C° 0 mm 1 m/s 753 mmHg 89%

    28 Octombrie, Duminică

    Timp Temperatura Precipitaţii Vânt Presiune Umiditate
    00:00 +27°C° 0 mm 1 m/s 753 mmHg 90%
    01:00 +26°C° 0 mm 1 m/s 753 mmHg 90%
    02:00 +26°C° 0 mm 1 m/s 753 mmHg 91%
    03:00 +26°C° 0 mm 1 m/s 753 mmHg 92%
    04:00 +26°C° 0 mm 2 m/s 753 mmHg 92%
    05:00 +26°C° 0 mm 2 m/s 753 mmHg 93%
    06:00 +26°C° 0 mm 2 m/s 754 mmHg 91%
    07:00 +27°C° 0 mm 3 m/s 754 mmHg 89%
    08:00 +28°C° 0 mm 3 m/s 755 mmHg 86%
    09:00 +29°C° 0 mm 3 m/s 755 mmHg 82%
    10:00 +30°C° 0 mm 3 m/s 755 mmHg 78%
    11:00 +31°C° 0 mm 3 m/s 755 mmHg 74%
    12:00 +31°C° 0 mm 3 m/s 754 mmHg 72%
    13:00 +33°C° 0 mm 3 m/s 753 mmHg 71%
    14:00 +33°C° 0 mm 3 m/s 752 mmHg 69%
    15:00 +33°C° 0 mm 3 m/s 751 mmHg 71%
    16:00 +32°C° 0 mm 2 m/s 751 mmHg 74%
    17:00 +32°C° 0 mm 2 m/s 751 mmHg 76%
    18:00 +31°C° 0 mm 2 m/s 751 mmHg 78%
    19:00 +29°C° 0 mm 2 m/s 752 mmHg 81%
    20:00 +28°C° 0 mm 2 m/s 753 mmHg 83%
    21:00 +28°C° 0 mm 2 m/s 753 mmHg 84%
    22:00 +28°C° 0 mm 2 m/s 753 mmHg 84%
    23:00 +27°C° 0 mm 2 m/s 753 mmHg 85%

    29 Octombrie, Luni

    Timp Temperatura Precipitaţii Vânt Presiune Umiditate
    00:00 +27°C° 0 mm 2 m/s 753 mmHg 86%
    01:00 +27°C° 0 mm 2 m/s 753 mmHg 87%
    02:00 +27°C° 0 mm 2 m/s 752 mmHg 87%
    03:00 +26°C° 0.1 mm 2 m/s 752 mmHg 89%
    04:00 +26°C° 0.1 mm 2 m/s 753 mmHg 90%
    05:00 +26°C° 0.1 mm 2 m/s 753 mmHg 91%
    06:00 +27°C° 0 mm 3 m/s 753 mmHg 89%
    07:00 +27°C° 0 mm 3 m/s 754 mmHg 87%
    08:00 +28°C° 0 mm 4 m/s 754 mmHg 85%
    09:00 +29°C° 0 mm 4 m/s 754 mmHg 81%
    10:00 +30°C° 0 mm 4 m/s 754 mmHg 77%
    11:00 +32°C° 0 mm 4 m/s 754 mmHg 73%
    12:00 +33°C° 0 mm 4 m/s 753 mmHg 70%
    13:00 +34°C° 0 mm 4 m/s 752 mmHg 66%
    14:00 +34°C° 0 mm 4 m/s 751 mmHg 63%
    15:00 +34°C° 0 mm 3 m/s 751 mmHg 67%
    16:00 +34°C° 0 mm 2 m/s 750 mmHg 70%
    17:00 +34°C° 0 mm 2 m/s 750 mmHg 73%
    18:00 +31°C° 0 mm 2 m/s 751 mmHg 76%
    19:00 +30°C° 0 mm 2 m/s 751 mmHg 78%
    20:00 +28°C° 0 mm 1 m/s 752 mmHg 81%
    21:00 +28°C° 0 mm 2 m/s 752 mmHg 81%
    22:00 +28°C° 0 mm 2 m/s 752 mmHg 82%
    23:00 +28°C° 0 mm 2 m/s 752 mmHg 83%
    Arată mai mult